Regional Weather Roundup
Issued by NWS

Home | Current Version | Previous Version | Text Only | Print | Product List | Glossary On
Versions: 1 2 3 4 5 6 7 8 9 10 11 12 13 14 15 16 17 18 19 20 21 22 23 24 25 26 27
000
ASUS45 KREV 301810
RWRNV
NEVADA REGIONAL WEATHER ROUNDUP
NATIONAL WEATHER SERVICE RENO NV
1100 AM PDT MON MAY 30 2016

NOTE: "FAIR" INDICATES FEW OR NO CLOUDS BELOW 12,000 FEET WITH NO
SIGNIFICANT WEATHER AND/OR OBSTRUCTIONS TO VISIBILITY.

NVZ001-003-004-301900-
WESTERN NEVADA

CITY           SKY/WX    TMP DP  RH WIND       PRES   REMARKS
RENO           MOSUNNY   75  35  23 S3        30.15F
6HR MIN TEMP:  53; 6HR MAX TEMP:  75;

CARSON CITY    FAIR      72  32  23 N5        30.18F
MINDEN         FAIR      70  36  28 W3        30.18F
FALLON         SUNNY     76  30  18 CALM      30.13F
6HR MIN TEMP:  47; 6HR MAX TEMP:  76;

LOVELOCK       SUNNY     77  30  17 VRB6      30.13F
6HR MIN TEMP:  50; 6HR MAX TEMP:  78;

HAWTHORNE      SUNNY     73  32  21 W8        30.15F
$$

NVZ002-CAZ072-073-301900-
NORTHERN AND CENTRAL SIERRA

CITY           SKY/WX    TMP DP  RH WIND       PRES   REMARKS
S. LAKE TAHOE  SUNNY     63  39  41 NE8       30.23F
6HR MIN TEMP:  34; 6HR MAX TEMP:  63;

TRUCKEE        SUNNY     64  37  36 CALM      30.23F
SQUAW VLY 8000 NOT AVBL
SUSANVILLE     SUNNY     72  36  26 E5        30.17F
MAMMOTH LAKES  FAIR      68  31  25 NW5       30.27S
6HR MIN TEMP:  41; 6HR MAX TEMP:  68;

BRIDGEPORT     FAIR      67  32  27 VRB3      30.22F
$$

NVZ030-031-036-301900-
NORTHERN NEVADA

CITY           SKY/WX    TMP DP  RH WIND       PRES   REMARKS
ELKO           SUNNY     69  37  30 CALM      30.16F
6HR MIN TEMP:  43; 6HR MAX TEMP:  70;

WINNEMUCCA     SUNNY     74  32  21 VRB7      30.16S
6HR MIN TEMP:  38; 6HR MAX TEMP:  74;

WENDOVER       SUNNY     70  45  40 E7        30.13S
$$

NVZ035-037-301900-
CENTRAL NEVADA

CITY           SKY/WX    TMP DP  RH WIND       PRES   REMARKS
ELY            SUNNY     71  33  24 N9        30.17F
6HR MIN TEMP:  35; 6HR MAX TEMP:  71;

EUREKA           N/A     67  38  34 MISG      30.19S
6HR MIN TEMP:  41; 6HR MAX TEMP:  68;

$$

NVZ013-014-301900-
SOUTH CENTRAL NEVADA

CITY           SKY/WX    TMP DP  RH WIND       PRES   REMARKS
TONOPAH        MOSUNNY   76  28  17 W7        30.14S
6HR MIN TEMP:  50; 6HR MAX TEMP:  77;

$$

NVZ017-020-022-301900-
SOUTHERN NEVADA

CITY           SKY/WX    TMP DP  RH WIND       PRES   REMARKS
LAS VEGAS      MOSUNNY   86  29  12 E6        29.90F
6HR MIN TEMP:  69; 6HR MAX TEMP:  87;

N. LAS VEGAS   SUNNY     86  31  13 NE3       29.93F
6HR MIN TEMP:  68; 6HR MAX TEMP:  86;

NELLIS AFB     SUNNY     86  31  13 VRB2      29.91F
6HR MIN TEMP:  64; 6HR MAX TEMP:  86;

HENDERSON      SUNNY     85  27  12 CALM      29.97F
6HR MIN TEMP:  64; 6HR MAX TEMP:  85;

MERCURY        SUNNY     87  31  13 N12       29.98F
6HR MIN TEMP:  60; 6HR MAX TEMP:  87;

$$




USA.gov is the U.S. government's official web portal to all federal, state and local government web resources and services.